Meath Environmental Platform

Observations for Trim Market St

Time AQI Temp °C Hum % Pres Pa CO μg/m³ H₂S μg/m³ NO μg/m³ NO₂ μg/m³ O₃ μg/m³ SO₂ μg/m³ PM1 μg/m³ PM2.5 μg/m³ PM10 μg/m³
Thursday 27 August 2026
00:09 3 16.8 82 2,147,483,647 0.29 0 2.07 6.48 55.05 0 19.24 21.29 33.19
00:06 3 16.9 82 2,147,483,647 0.28 0 2.05 7.4 52.2 0 18.53 20.83 31.55
00:03 3 16.8 81 2,147,483,647 0.29 0 2.06 8.34 50.76 0 18.53 20.84 33.25
00:00 3 16.9 81 2,147,483,647 0.29 0 2.06 9.97 55.26 0 17.81 19.91 31.6
Wednesday 26 August 2026
23:56 3 16.9 81 2,147,483,647 0.29 0 2.05 7.77 52.54 0 16.39 19.92 31.62
23:52 3 16.9 81 2,147,483,647 0.29 0 2.04 10.92 52.15 0 17.1 21.35 32.24
23:51 3 16.9 81 2,147,483,647 0.29 0 2.04 10.18 50.81 0 17.81 21.35 32.24
23:48 3 17 81 2,147,483,647 0.29 0 2.02 10.23 55.7 0 17.1 21.37 33.41
23:47 3 17 81 2,147,483,647 0.31 0 2.02 15.69 52.33 0 17.81 22.32 35.13
23:46 3 17 81 2,147,483,647 0.29 0 2.03 9.38 54.08 0 16.39 19.5 30.06
23:45 3 17 81 2,147,483,647 0.28 0 2.02 10.37 54.56 0 17.1 19.98 32.9
23:44 3 17 80 2,147,483,647 0.29 0 2.02 10.11 54.64 0 18.53 21.87 33.49
23:43 3 17 80 2,147,483,647 0.28 0 2.02 10.79 51.95 0 17.81 21.4 34.62
23:41 3 17 80 2,147,483,647 0.33 0 2.02 12.76 53.57 0 17.81 21.88 34.65
23:40 3 17 80 2,147,483,647 0.46 0 2.02 15.57 52.96 0 17.81 19.54 30.72
23:37 3 17 80 2,147,483,647 0.28 0 2.02 13.9 55.62 0 18.53 20.97 32.47
23:36 3 17 80 2,147,483,647 0.27 0 2.02 10.48 54.81 0 17.1 21.46 34.2
23:34 3 17 80 2,147,483,647 0.3 0 2.01 15.08 57.13 0 17.81 20.99 32.52
23:25 3 17.1 79 2,147,483,647 0.27 0 1.99 11.36 51.63 0 18.53 20.11 31.54
23:21 3 17.1 79 2,147,483,647 0.25 0 1.98 13.37 55.24 0 17.81 20.6 32.16